CAPE
0 0 0 0 0 0 0 0 0 0 0 0 0 0 23 94 65 0 0 0 0 0 0 3 0 0 0 0 0 0 0 39 112 188 194 129 119 101 73 56 43 28 0 0 0 0 0 0 0
0 0 0 0 0 0 0 0 0 0 0 0 0 23 57 78 60 4 0 0 0 0 0 0 24 0 0 0 0 0 0 13 89 170 211 160 131 83 48 24 2 0 0 0 0 0 0 0 0
0 0 0 0 0 0 0 0 0 0 0 0 0 0 51 52 25 35 7 0 0 0 0 0 44 0 0 0 0 0 0 0 27 40 102 140 127 66 32 0 0 0 0 0 0 0 0 0 0
0 0 0 0 0 0 0 0 0 0 0 0 0 12 51 42 29 33 36 0 0 0 0 0 20 0 0 0 0 0 0 0 0 0 36 114 73 38 12 0 0 0 0 0 0 0 0 0 0
0 0 0 0 0 0 0 0 0 0 0 0 0 0 24 12 3 26 3 0 0 0 0 0 3 0 0 0 0 0 0 0 0 0 7 65 42 0 0 0 0 0 0 0 5 0 0 0 0
0 0 0 0 0 0 0 0 0 0 0 0 0 0 0 0 14 20 0 0 0 0 0 0 46 0 0 0 0 0 0 0 0 0 0 0 0 0 0 0 0 0 0 2 18 20 12 0 0
0 0 0 0 0 0 0 0 0 0 0 0 0 0 0 0 111 60 0 0 0 0 0 0 40 18 0 0 0 0 0 0 0 0 0 0 0 0 0 0 0 0 0 1 13 42 41 5 20
0 0 0 0 0 0 0 0 0 0 0 0 0 0 0 0 234 160 10 0 0 0 0 0 17 0 0 0 0 0 0 0 0 0 0 0 0 0 0 0 0 0 0 0 17 54 60 52 76
0 0 0 0 0 0 0 0 0 0 0 0 0 5 8 9 18 44 20 0 0 0 0 0 0 0 0 0 0 0 0 0 0 0 0 0 0 0 0 0 0 0 0 0 43 74 110 131 150
0 0 0 0 0 0 0 0 0 0 0 0 0 0 0 0 4 11 23 3 0 0 0 0 0 0 0 0 0 0 0 0 0 0 0 0 0 0 0 0 0 0 0 0 88 116 128 220 174
0 0 0 0 0 0 0 0 0 0 0 0 0 0 0 0 0 0 2 185 58 55 92 72 0 0 0 0 0 0 0 0 0 0 0 0 0 0 0 0 0 0 0 0 103 95 145 125 99
0 0 0 0 0 0 0 0 0 0 0 0 0 0 0 0 0 0 0 53 160 368 306 244 113 12 0 0 0 0 0 0 0 0 0 0 0 0 0 0 0 0 0 0 0 11 10 57 50
0 0 0 0 0 0 0 0 0 0 0 0 0 0 0 0 0 0 10 50 118 266 451 507 333 138 28 0 0 0 0 0 0 0 0 0 0 0 0 0 0 0 0 0 0 6 11 19 24
0 0 0 0 0 0 0 0 0 0 0 0 0 0 0 0 0 0 0 0 20 103 279 567 478 314 40 6 1 0 0 1 0 3 7 2 0 0 0 0 0 0 0 0 0 11 17 23 46
0 0 0 0 0 0 0 0 0 0 0 0 0 0 0 0 0 0 0 0 0 3 56 275 598 423 146 61 111 167 152 141 138 156 205 238 161 88 0 0 0 0 0 0 13 32 34 52 119
0 0 0 0 0 0 0 0 0 0 0 0 0 0 0 0 0 0 0 0 0 0 20 50 352 419 334 222 254 323 314 265 304 370 390 408 373 241 148 92 47 22 3 0 25 59 112 87 184
0 0 0 0 0 0 0 0 0 0 0 0 0 0 0 0 0 0 0 0 0 0 0 55 204 483 434 409 392 448 488 431 464 486 569 645 576 362 322 259 219 95 32 17 62 103 224 277 291
0 0 0 0 0 0 0 0 0 0 0 0 0 0 0 0 0 0 0 0 0 0 0 105 250 341 561 520 588 797 803 816 905 905 928 1026 896 649 492 508 410 325 132 95 85 201 267 320 340
0 0 0 0 0 0 0 0 0 0 0 0 0 0 0 0 0 0 0 0 0 0 0 7 556 496 660 719 717 746 758 488 478 515 757 1076 1198 1074 704 661 713 522 461 401 377 238 243 221 170
0 0 0 0 0 0 0 0 0 0 0 0 0 0 0 0 0 0 0 0 0 0 0 0 638 858 867 827 1029 1108 683 665 749 860 763 628 959 1142 1099 878 932 814 859 826 693 537 400 263 310
0 0 0 0 0 0 0 0 0 0 0 0 0 0 0 0 0 0 0 0 0 0 0 0 120 938 1108 1085 868 660 478 387 239 197 285 510 961 1311 1317 1263 1164 1054 1025 1039 824 654 501 375 420
0 0 0 0 0 0 0 0 0 0 0 0 0 0 0 0 0 0 0 0 0 0 0 1 39 330 597 589 395 187 91 76 38 18 162 549 1213 1435 1433 1314 1341 1413 1319 1199 921 707 494 363 333
0 0 0 0 0 0 0 0 0 0 0 0 0 0 0 0 0 0 0 0 0 0 0 19 61 52 207 118 96 34 27 0 0 20 216 568 1348 1576 1634 1534 1365 1347 1268 1263 963 741 603 407 348
0 0 0 0 0 0 0 0 0 0 0 0 0 0 0 0 0 0 0 0 0 0 0 0 197 145 89 49 21 0 0 0 3 334 395 764 1448 1658 1665 1555 1496 1454 1195 1289 934 860 633 384 312
0 0 0 0 0 0 0 0 0 0 0 0 0 0 0 0 0 0 0 0 0 0 0 12 10 145 36 6 11 0 0 0 2 336 363 1013 1591 1597 1588 1560 1469 1348 1175 1245 878 737 582 530 508
0 0 0 0 0 0 0 0 0 0 0 0 0 0 0 0 0 0 0 0 0 0 0 0 0 4 4 0 0 0 0 0 27 227 492 1305 1687 1576 1559 1485 1323 1003 1278 926 836 782 689 560 329
0 0 0 0 0 0 0 0 0 0 0 0 0 0 0 0 0 0 0 0 0 0 0 0 0 0 0 0 0 0 0 16 59 177 676 1435 1589 1526 1460 1353 1111 1209 959 779 786 641 507 368 253
0 0 0 0 0 0 0 0 0 0 0 0 0 0 0 0 0 0 0 0 0 0 0 0 0 0 0 0 0 2 24 145 352 604 1032 1448 1509 1518 1361 1185 1094 1103 909 681 572 496 357 236 187
0 0 0 0 0 0 0 0 2 2 0 0 0 0 0 0 0 0 0 0 0 72 0 74 0 0 0 0 0 62 219 540 858 928 1263 1475 1473 1400 1224 1176 1050 1009 782 592 511 324 184 97 55
0 0 0 0 0 0 0 0 0 0 0 0 0 0 0 0 0 1 0 0 0 83 534 378 294 212 139 225 327 429 759 1126 1329 1306 1273 1468 1499 1203 1190 1096 993 845 642 477 325 134 94 38 7
CIN
0 0 0 0 0 0 0 0 0 0 0 0 0 0 -79 -58 -79 0 0 0 0 0 0 -611 0 0 0 0 0 0 0 -448 -369 -347 -325 -328 -335 -335 -341 -320 -345 -361 0 0 0 0 0 0 0
0 0 0 0 0 0 0 0 0 0 0 0 0 -62 -92 -107 -194 -144 0 0 0 0 0 0 -758 0 0 0 0 0 0 -523 -419 -388 -351 -351 -361 -352 -351 -378 -108 0 0 0 0 0 0 0 0
0 0 0 0 0 0 0 0 0 0 0 0 0 0 -74 -114 -220 -297 -126 0 0 0 0 0 -763 0 0 0 0 0 0 0 -515 -460 -407 -384 -361 -383 -411 0 0 0 0 0 0 0 0 0 0
0 0 0 0 0 0 0 0 0 0 0 0 0 -27 -86 -148 -191 -287 -448 0 0 0 0 0 -820 0 0 0 0 0 0 0 0 0 -433 -405 -406 -431 -475 0 0 0 0 0 0 0 0 0 0
0 0 0 0 0 0 0 0 0 0 0 0 0 0 -53 -162 -83 -330 -104 0 0 0 0 0 -225 0 0 0 0 0 0 0 0 0 -352 -450 -461 0 0 0 0 0 0 0 -506 0 0 0 0
0 0 0 0 0 0 0 0 0 0 0 0 0 0 0 0 -94 -335 0 0 0 0 0 0 -828 0 0 0 0 0 0 0 0 0 0 0 0 0 0 0 0 0 0 -179 -490 -465 -415 0 0
0 0 0 0 0 0 0 0 0 0 0 0 0 0 0 0 -204 -288 0 0 0 0 0 0 -825 -387 0 0 0 0 0 0 0 0 0 0 0 0 0 0 0 0 0 -181 -499 -457 -422 -206 -389
0 0 0 0 0 0 0 0 0 0 0 0 0 0 -1 -5 -256 -272 -127 0 0 0 0 0 -873 0 0 0 0 0 0 0 0 0 0 0 0 0 0 0 0 0 0 0 -509 -441 -406 -400 -387
0 0 0 0 0 0 0 0 0 0 0 0 0 -39 -54 -102 -239 -273 -277 0 0 0 0 0 0 0 0 0 0 0 0 0 0 0 0 0 0 0 0 0 0 0 0 0 -475 -428 -376 -360 -352
0 0 0 0 0 0 0 0 0 0 0 0 0 0 0 0 -144 -176 -183 -216 0 0 0 0 0 0 0 0 0 0 0 0 0 0 0 0 0 0 0 0 0 0 0 0 -447 -399 -381 -331 -363
0 0 0 0 0 0 0 0 0 0 0 0 0 0 0 0 0 0 -18 -183 -166 -262 -430 -536 0 0 0 0 0 0 0 0 0 0 0 0 0 0 0 0 0 0 0 0 -453 -430 -397 -419 -421
0 0 0 0 0 0 0 0 0 0 0 0 0 0 0 0 0 0 0 -111 -151 -231 -276 -376 -495 -591 0 0 0 0 0 0 0 0 0 0 0 0 0 0 0 0 0 0 0 -553 -546 -494 -459
0 0 0 0 0 0 0 0 0 0 0 0 0 0 0 0 0 0 -179 -152 -151 -156 -229 -338 -450 -448 -511 -246 0 0 0 0 0 0 0 0 0 0 0 0 0 0 0 0 0 -588 -570 -518 -501
0 0 0 0 0 0 0 0 0 0 0 0 0 0 0 0 0 0 0 0 -136 -120 -166 -265 -363 -474 -542 -667 -302 0 0 -470 0 -523 -544 -576 0 0 0 0 0 0 0 0 0 -579 -544 -461 -447
0 0 0 0 0 0 0 0 0 0 0 0 0 0 0 0 0 0 0 0 0 -138 -157 -208 -280 -542 -462 -444 -531 -557 -555 -596 -589 -662 -716 -699 -778 -802 -1 0 0 0 0 0 -598 -539 -520 -431 -372
0 0 0 0 0 0 0 0 0 0 0 0 0 0 0 0 0 0 0 0 0 0 -107 -140 -221 -306 -374 -413 -383 -461 -506 -515 -485 -527 -570 -617 -675 -738 -751 -694 -680 -618 -631 0 -555 -466 -391 -375 -322
0 0 0 0 0 0 0 0 0 0 0 0 0 0 0 0 0 0 0 0 0 0 0 -99 -123 -214 -262 -328 -315 -359 -393 -413 -419 -459 -459 -501 -580 -656 -639 -607 -556 -501 -507 -526 -457 -407 -312 -253 -231
0 0 0 0 0 0 0 0 0 0 0 0 0 0 0 0 0 0 0 0 0 0 0 -202 -131 -155 -197 -213 -249 -302 -325 -361 -403 -383 -369 -353 -469 -532 -535 -511 -476 -375 -415 -418 -409 -321 -275 -215 -146
0 0 0 0 0 0 0 0 0 0 0 0 0 0 0 0 0 0 0 0 0 0 0 -300 -165 -171 -218 -233 -199 -244 -215 -303 -355 -360 -345 -302 -339 -370 -439 -434 -361 -310 -307 -291 -257 -270 -218 -205 -183
0 0 0 0 0 0 0 0 0 0 0 0 0 0 0 0 0 0 0 0 0 0 0 0 -197 -146 -187 -179 -198 -224 -254 -326 -284 -279 -326 -365 -350 -349 -360 -362 -278 -260 -226 -207 -191 -207 -193 -180 -170
0 0 0 0 0 0 0 0 0 0 0 0 0 0 0 0 0 0 0 0 0 0 0 0 -190 -127 -150 -174 -264 -318 -325 -328 -338 -369 -371 -370 -333 -306 -307 -275 -222 -214 -184 -150 -168 -177 -159 -141 -131
0 0 0 0 0 0 0 0 0 0 0 0 0 0 0 0 0 0 0 0 0 0 0 -160 -245 -191 -164 -230 -229 -181 -160 -200 -303 -311 -314 -293 -330 -281 -272 -233 -187 -157 -141 -127 -146 -150 -168 -145 -99
0 0 0 0 0 0 0 0 0 0 0 0 0 0 0 0 0 0 0 0 0 0 0 -200 -200 -250 -219 -234 -191 -193 -189 0 0 -323 -304 -346 -303 -265 -232 -174 -171 -145 -140 -113 -123 -130 -136 -129 -98
0 0 0 0 0 0 0 0 0 0 0 0 0 0 0 0 0 0 0 0 0 0 0 0 -198 -223 -224 -190 -216 0 0 0 -123 -258 -279 -313 -260 -222 -175 -147 -141 -128 -129 -99 -122 -83 -113 -108 -87
0 0 0 0 0 0 0 0 0 0 0 0 0 0 0 0 0 0 0 0 0 0 0 -125 -31 -153 -177 -148 -220 0 0 0 -115 -249 -256 -262 -220 -181 -133 -113 -117 -116 -104 -97 -114 -93 -103 -60 -32
0 0 0 0 0 0 0 0 0 0 0 0 0 0 0 0 0 0 0 0 0 0 0 0 0 -103 -134 0 0 0 0 0 -254 -243 -233 -215 -197 -146 -118 -98 -113 -123 -88 -131 -79 -70 -54 -35 -46
0 0 0 0 0 0 0 0 0 0 0 0 0 0 0 0 0 0 0 0 0 0 0 0 0 0 0 0 0 0 -42 -295 -244 -215 -190 -184 -178 -118 -103 -99 -105 -74 -107 -110 -70 -65 -47 -40 -54
0 0 0 0 0 -1 0 0 0 0 -14 0 0 0 0 0 0 0 0 0 0 0 0 0 0 0 0 0 0 -134 -298 -244 -220 -171 -157 -153 -136 -101 -112 -88 -76 -73 -83 -79 -72 -53 -46 -54 -56
0 0 0 0 0 0 0 0 -77 -64 0 0 0 0 0 0 0 0 0 0 0 -180 0 -101 0 0 0 0 0 -272 -260 -202 -168 -143 -142 -111 -123 -99 -103 -68 -66 -55 -68 -68 -53 -52 -73 -83 -96
0 0 0 0 0 -1 -1 0 0 0 0 0 0 0 0 0 0 -142 0 0 0 -103 -104 -114 -136 -156 -211 -187 -188 -193 -172 -165 -131 -111 -122 -120 -100 -113 -81 -62 -54 -57 -71 -61 -45 -81 -72 -96 -125
Wind_Speed
22 20 17 16 19 20 23 22 27 25 21 24 29 16 1 2 3 16 5 14 20 22 27 28 27 26 26 24 23 23 24 24 24 23 23 22 22 22 21 21 21 20 20 19 19 19 19 19 19
20 16 16 17 21 23 26 24 30 26 30 34 30 11 14 6 7 5 13 14 26 25 25 26 26 24 25 24 23 23 23 22 22 21 21 20 20 19 19 19 18 18 18 17 17 17 17 18 17
19 16 18 19 24 26 23 18 19 26 32 30 24 16 13 9 11 6 6 15 18 20 23 24 25 23 23 23 23 22 21 21 21 20 20 18 17 17 17 16 16 16 15 15 16 15 16 16 16
17 18 20 26 33 31 29 29 28 29 26 25 24 19 15 5 3 3 11 17 20 20 22 23 23 22 21 22 22 21 21 19 19 18 17 16 16 15 14 14 13 13 13 13 13 13 14 15 15
19 19 23 29 37 34 31 29 27 29 28 28 26 23 16 5 1 8 13 16 18 17 18 21 22 21 20 20 20 20 19 18 17 16 16 14 14 13 12 11 11 10 10 11 11 11 12 13 13
20 23 28 32 35 35 32 28 29 28 28 27 25 24 13 13 5 10 13 15 16 18 17 17 20 18 17 18 18 18 18 16 15 15 14 12 12 11 10 9 9 8 8 8 8 10 10 10 11
20 25 30 32 35 35 31 27 30 26 27 24 25 21 16 7 5 10 10 12 14 13 15 14 15 15 15 15 15 16 16 15 14 13 13 12 10 9 8 8 7 6 6 6 6 7 8 8 9
22 22 34 31 34 35 28 27 29 25 27 21 20 20 13 10 4 7 6 8 10 11 12 13 12 11 11 11 12 13 14 13 12 12 10 10 9 7 7 6 5 4 3 3 3 5 6 6 6
23 32 36 36 31 31 32 31 30 30 28 23 19 14 16 10 5 5 6 6 8 8 11 11 11 10 10 8 8 9 10 10 10 10 8 8 7 6 5 4 3 2 1 1 1 3 4 4 4
25 34 33 30 31 34 36 38 33 33 33 25 18 18 17 10 5 7 9 10 11 12 13 13 12 11 9 6 6 6 6 7 7 7 6 5 5 5 4 2 0 0 0 1 1 1 3 3 4
31 41 36 37 38 37 39 43 38 37 38 35 26 25 23 19 19 18 13 13 14 13 12 13 13 11 11 8 6 5 5 5 5 4 4 4 3 3 2 1 2 1 1 2 2 2 3 3 3
38 38 39 42 42 41 45 44 43 40 41 42 38 28 27 27 25 31 17 16 16 14 14 13 12 12 12 9 9 8 6 3 4 3 3 2 1 1 2 4 2 2 2 2 3 3 3 3 3
38 40 40 42 42 42 44 47 49 52 43 43 46 39 31 33 34 30 24 15 16 18 18 17 15 13 12 11 10 9 9 6 5 2 2 1 2 1 3 4 4 2 2 2 2 3 2 3 2
29 34 37 35 36 35 38 43 43 51 43 44 43 48 40 34 36 34 28 19 13 16 21 20 20 17 14 12 10 9 9 7 5 3 3 2 2 2 3 6 4 3 2 3 2 2 2 2 3
34 40 40 37 32 33 36 47 49 41 38 40 44 47 47 37 36 37 38 35 30 18 14 24 23 22 18 16 13 10 9 8 6 5 4 3 3 3 5 7 6 5 4 4 3 3 4 4 3
31 33 38 28 32 31 30 53 46 41 45 49 47 43 51 44 41 42 42 41 35 31 20 16 19 23 20 18 15 13 12 10 9 8 7 6 5 5 6 8 7 7 6 5 4 3 5 3 4
26 34 34 35 29 31 31 50 40 36 38 41 43 48 48 50 45 42 43 43 43 33 29 21 20 19 22 19 19 17 15 14 13 11 10 9 7 7 8 10 9 7 7 5 4 4 5 5 5
31 34 31 31 28 30 37 47 40 36 37 37 39 39 41 46 51 45 43 42 43 43 33 31 22 22 21 19 19 20 19 18 17 15 13 11 10 9 10 11 10 7 6 5 5 5 5 8 5
32 33 36 34 32 35 40 47 46 40 40 42 43 44 45 47 46 49 45 42 41 39 37 29 26 24 24 23 22 22 22 22 20 18 15 13 12 11 11 12 10 8 6 5 5 5 7 7 7
32 36 38 38 37 38 41 53 51 44 42 44 45 45 45 46 47 48 49 48 44 41 36 31 32 26 25 24 23 24 23 23 20 18 17 16 14 12 10 10 9 8 5 5 5 5 8 8 6
32 33 36 39 39 38 39 53 51 49 45 43 44 45 47 47 48 48 48 50 51 46 40 32 27 28 26 24 23 23 22 23 19 20 23 20 15 11 10 10 8 6 5 6 6 4 4 8 8
36 34 40 43 43 46 36 59 49 48 49 48 49 51 51 51 49 49 48 49 49 51 43 38 32 31 29 25 25 24 23 24 25 25 27 23 15 12 10 9 6 5 5 5 4 3 5 6 7
33 35 38 42 45 45 42 44 53 46 55 52 50 48 48 47 49 50 49 48 49 49 46 41 38 32 32 27 26 28 25 23 27 29 26 22 16 12 11 7 5 6 6 5 3 4 5 6 7
29 34 38 36 36 43 37 40 59 44 47 45 44 43 42 46 47 49 51 49 48 48 43 40 36 35 30 27 23 24 27 29 25 24 25 21 15 11 8 6 6 6 5 4 3 3 4 5 6
30 35 40 38 36 42 32 42 46 41 41 38 44 46 46 46 49 50 51 50 49 46 42 37 33 30 29 28 26 23 22 27 28 26 22 17 14 11 9 6 6 6 5 4 4 2 4 6 5
32 30 33 42 41 43 40 41 37 36 36 37 40 42 44 47 47 49 50 50 52 50 42 35 34 33 30 30 27 25 28 27 23 23 24 18 12 11 7 6 6 4 3 4 1 3 5 5 5
31 33 29 36 39 44 39 40 40 34 35 37 41 43 46 47 48 48 47 48 51 51 42 34 30 31 32 28 25 28 28 27 24 22 21 17 14 10 6 6 5 3 2 2 2 4 5 5 6
24 25 30 28 38 40 35 39 40 34 38 41 43 45 47 49 48 43 40 43 46 46 38 36 33 28 29 30 28 24 23 25 22 18 18 15 13 9 7 6 3 1 1 2 3 6 6 5 6
23 24 21 23 24 32 37 31 28 37 34 40 45 44 47 48 44 37 35 38 39 35 28 28 29 27 24 24 24 26 24 23 19 16 15 15 10 9 7 4 2 2 2 2 4 4 5 5 5
10 12 16 25 28 25 31 41 32 30 35 38 41 42 47 44 39 36 28 33 33 33 27 29 27 27 25 22 24 23 20 19 17 14 16 13 11 8 6 4 3 3 2 2 3 3 4 4 5
Wind_Direction
279 277 279 279 270 269 262 256 241 243 279 296 282 293 136 349 160 302 53 120 121 123 129 134 130 120 113 106 102 102 103 102 98 94 93 90 85 81 79 82 82 79 76 75 71 68 63 58 53
279 278 277 274 263 259 256 253 238 262 275 279 267 290 288 318 299 15 109 128 129 128 130 134 133 123 117 113 108 108 107 106 102 100 100 97 90 86 84 85 85 82 78 73 70 67 63 59 54
276 276 267 264 260 253 257 258 267 276 286 285 277 290 292 294 297 123 122 131 132 130 133 136 136 128 122 117 115 112 112 110 110 107 107 102 93 90 88 87 89 85 79 75 71 69 62 59 53
275 271 270 259 251 251 252 255 268 287 299 303 276 286 296 298 134 166 144 136 137 136 137 139 138 134 127 122 120 120 118 113 114 111 112 107 103 96 94 90 92 90 83 77 72 68 63 55 49
273 270 262 259 251 252 257 266 277 282 294 302 289 291 285 265 246 138 149 150 150 145 143 143 142 138 133 128 123 123 122 119 116 116 116 112 109 102 97 96 96 94 86 76 75 68 60 53 51
272 266 262 257 255 255 258 269 274 286 290 299 305 298 293 277 140 149 149 152 153 150 149 146 145 143 138 134 129 127 126 124 120 123 121 114 115 111 104 103 106 98 92 80 77 63 57 52 54
275 266 261 262 261 260 256 269 272 285 289 296 304 305 307 249 226 154 155 154 154 155 153 153 150 148 143 141 135 129 128 128 127 127 126 124 125 122 110 111 111 102 96 85 74 61 54 50 58
275 279 260 262 259 258 261 268 274 284 287 296 307 306 304 270 201 160 159 178 171 163 163 162 158 154 149 146 143 135 130 128 131 133 129 129 128 130 122 121 112 98 96 81 79 59 50 46 52
272 263 259 257 263 264 264 266 269 279 280 287 298 312 306 284 214 201 174 188 190 191 174 174 170 166 158 158 152 140 136 129 132 136 133 126 121 124 131 125 115 105 112 134 82 50 45 36 33
263 260 264 268 271 272 265 263 271 279 272 272 294 286 313 313 211 218 204 196 199 185 178 179 180 177 179 185 176 161 139 131 129 131 130 119 124 131 134 128 130 210 203 224 253 360 18 2 2
265 260 264 266 268 273 272 266 270 273 263 259 281 280 289 301 288 278 251 240 202 211 219 203 198 196 195 205 213 205 171 145 139 136 136 131 116 122 118 34 358 335 256 273 272 294 341 339 316
265 267 267 264 265 269 267 271 271 270 267 263 269 283 282 283 288 289 269 226 241 236 222 215 218 208 205 220 218 216 202 198 170 161 159 150 139 36 32 11 337 314 286 279 258 278 304 314 283
266 270 271 270 270 270 269 264 265 263 271 269 265 270 278 276 278 286 288 255 239 235 236 235 233 221 221 227 232 227 218 220 207 205 197 193 214 277 355 3 354 321 313 293 263 256 295 311 299
279 278 277 279 279 280 278 273 272 259 271 270 272 265 270 278 276 275 278 283 269 250 239 240 237 243 230 231 224 220 220 244 239 237 243 224 248 282 340 355 345 340 297 313 265 248 274 296 346
280 275 277 279 284 282 281 271 264 274 278 276 270 266 266 273 274 274 270 274 283 274 264 244 240 252 240 242 239 247 246 254 253 253 272 268 265 280 325 342 337 332 312 312 266 274 315 317 326
283 280 275 285 287 286 282 267 269 274 272 269 271 273 266 270 271 273 270 270 277 280 259 262 248 239 241 247 246 257 260 257 270 272 287 287 274 283 313 332 325 323 311 308 276 282 311 288 301
286 278 281 284 292 286 278 267 275 280 277 277 275 268 268 267 268 269 269 268 268 279 272 249 243 242 237 241 256 260 266 269 274 279 288 294 282 290 305 318 320 306 310 298 279 289 313 313 308
283 282 286 288 291 291 281 273 279 281 283 282 280 280 277 270 265 267 269 269 269 268 275 263 245 239 233 239 255 268 273 277 280 283 286 289 291 292 300 314 315 299 296 296 286 304 309 324 304
289 287 287 292 293 290 284 278 277 282 282 282 282 280 280 274 273 268 266 268 270 272 270 270 249 244 243 249 255 262 268 275 277 283 287 282 284 288 298 310 310 298 280 273 267 303 321 332 348
294 290 289 291 291 292 286 276 276 280 282 282 283 281 280 279 276 274 271 266 267 268 268 270 257 244 242 246 251 265 270 273 273 278 283 286 286 291 297 306 305 297 284 294 291 309 329 334 344
297 297 295 292 295 294 292 279 279 279 283 284 282 283 280 280 280 277 275 271 263 263 265 262 258 247 239 242 254 269 276 282 279 285 294 295 288 288 297 304 302 288 274 290 302 306 319 332 343
296 302 296 293 292 284 293 279 280 283 282 283 284 282 280 278 280 279 277 273 269 261 263 261 258 251 242 244 250 257 263 269 281 287 295 299 290 288 297 300 297 299 300 292 298 316 329 339 335
305 307 300 294 288 286 284 283 279 287 283 284 286 285 284 283 280 276 276 274 268 265 262 261 261 252 248 243 248 260 265 274 285 290 293 295 289 289 299 296 295 297 297 291 300 327 341 347 345
318 311 306 300 292 281 286 285 278 288 287 289 290 291 290 287 285 277 274 274 270 266 261 258 258 254 244 243 242 254 265 274 282 290 292 292 288 291 293 295 299 299 300 311 321 331 354 354 354
321 313 301 297 289 285 295 286 283 292 298 297 294 292 291 291 285 278 273 272 270 267 263 255 250 247 245 248 251 250 253 274 277 279 286 286 284 287 283 290 295 300 274 313 332 346 351 353 3
316 313 303 292 291 289 297 286 287 301 306 306 302 299 297 292 289 280 273 271 267 265 263 253 251 246 244 248 249 255 266 272 273 274 277 276 267 271 268 282 295 295 297 329 356 1 355 356 3
317 306 312 299 295 290 290 290 296 304 302 307 309 302 299 297 290 281 274 272 271 260 259 252 247 246 245 238 244 260 265 270 270 273 272 264 262 259 250 276 285 282 316 12 43 2 356 2 2
335 327 310 310 296 290 294 294 291 303 305 308 310 309 303 299 289 280 273 275 271 261 254 251 248 242 244 252 254 256 260 268 269 262 264 257 253 240 251 263 266 257 119 77 25 359 2 7 9
338 332 324 317 308 300 297 293 303 303 310 307 310 309 307 300 283 274 269 281 274 264 250 243 245 246 243 248 253 261 265 268 260 254 254 250 229 226 237 217 204 167 131 71 360 7 21 18 29
20 16 344 313 310 306 301 290 306 312 313 310 306 308 311 294 269 252 272 282 267 265 252 249 250 249 253 256 260 263 261 258 255 249 248 233 218 220 207 178 169 149 124 28 19 37 30 63 63